This is the latest recevied weather packets stored in our database for station/object DH0DM-13. If no packets are shown the sender has not sent any weather packets the latest 1 day(s).
| Time | Temp. | Humidity | Pressure | Rain* | Wind** | Luminosity | Snow |
|---|---|---|---|---|---|---|---|
| 1778047133 | 13.89° C | 87% | 978 hPa | 6.1 mm | 0.89 m/s, 176° | - | - |
| 1778046532 | 13.33° C | 87% | 978 hPa | 6.1 mm | 3.13 m/s, 169° | - | - |
| 1778044730 | 13.33° C | 89% | 978.1 hPa | 6.1 mm | 0.89 m/s, 172° | - | - |
| 1778044129 | 12.78° C | 91% | 978 hPa | 6.1 mm | 7.15 m/s, 166° | - | - |
| 1778043528 | 12.78° C | 92% | 977.8 hPa | 6.1 mm | 2.68 m/s, 32° | - | - |
| 1778042927 | 12.78° C | 93% | 977.9 hPa | 6.1 mm | 2.68 m/s, 179° | - | - |
| 1778042326 | 12.22° C | 93% | 978 hPa | 6.1 mm | 0 m/s | - | - |
| 1778041725 | 12.22° C | 93% | 977.9 hPa | 6.1 mm | 2.68 m/s, 189° | - | - |
| 1778039923 | 12.22° C | 93% | 978 hPa | 6.1 mm | 0.89 m/s, 185° | - | - |
| 1778039322 | 12.22° C | 94% | 977.9 hPa | 6.1 mm | 1.34 m/s, 176° | - | - |
| 1778038721 | 12.22° C | 95% | 978 hPa | 6.1 mm | 0.89 m/s, 173° | - | - |
| 1778038120 | 12.22° C | 95% | 978.1 hPa | 6.1 mm | 0.45 m/s, 157° | - | - |
| 1778037519 | 12.22° C | 95% | 977.9 hPa | 6.1 mm | 0 m/s | - | - |
| 1778036918 | 12.22° C | 95% | 977.9 hPa | 6.1 mm | 0 m/s | - | - |
| 1778035716 | 12.22° C | 95% | 978.3 hPa | 6.1 mm | 0 m/s | - | - |
| 1778035116 | 12.22° C | 94% | 978.3 hPa | 6.1 mm | 0 m/s | - | - |
| 1778034515 | 12.22° C | 94% | 978.5 hPa | 6.1 mm | 0.89 m/s, 174° | - | - |
| 1778033914 | 12.22° C | 95% | 978.3 hPa | 6.1 mm | 0.45 m/s, 350° | - | - |
| 1778033313 | 12.22° C | 96% | 978.5 hPa | 6.1 mm | 0.89 m/s, 172° | - | - |
| 1778032712 | 12.22° C | 96% | 978.6 hPa | 6.1 mm | 1.34 m/s, 175° | - | - |
| 1778032111 | 12.78° C | 96% | 978.6 hPa | 6.1 mm | 0 m/s | - | - |
| 1778031510 | 12.22° C | 96% | 978.7 hPa | 6.1 mm | 1.34 m/s, 122° | - | - |
| 1778029708 | 12.22° C | 95% | 978.9 hPa | 6.1 mm | 0.89 m/s, 167° | - | - |
* Rain since midnight (hover to see other rain measurements)
** Current wind speed in m/s (hover to see current wind gust speed)